Regional Weather Roundup
Issued by NWS

Home | Current Version | Previous Version | Text Only | Print | Product List | Glossary Off
Versions: 1 2 3 4 5 6 7 8 9 10 11 12 13 14 15 16 17 18 19 20 21 22 23 24 25 26 27 28 29 30 31 32 33 34 35 36 37 38 39 40 41 42 43 44 45 46 47 48 49 50

000
ASUS43 KDTX 301510
RWRMI
MICHIGAN HOURLY REGIONAL WEATHER ROUNDUP
NATIONAL WEATHER SERVICE DETROIT/PONTIAC MI
1100 AM EDT TUE SEP 30 2014

NOTE: "FAIR" INDICATES FEW OR NO CLOUDS BELOW 12,000 FEET WITH NO
SIGNIFICANT WEATHER AND/OR OBSTRUCTION TO VISIBILITY.

MIZ047>049-052>055-059>063-066>070-074>076-081>083-301600-
SOUTHEAST LOWER MICHIGAN

CITY           SKY/WX    TMP DP  RH WIND       PRES   REMARKS
ADRIAN         CLOUDY    53  50  89 N7        29.99R
ALMA           CLOUDY    51  46  81 N8        30.01S
ANN ARBOR      CLOUDY    54  47  77 N10       29.97S
BAD AXE        CLOUDY    50  50 100 N13G20    29.97S
CARO           CLOUDY    51  48  90 N9G16     29.97S
DETROIT CITY     N/A    N/A N/A N/A MISG        N/A
DETROIT        CLOUDY    55  50  82 NW7       29.96S
FLINT          CLOUDY    52  47  83 N10       29.99S HAZE
GROSSE ILE     CLOUDY    55  52  88 N9        29.95S
HILLSDALE      CLOUDY    52  52  97 N7        29.99R
HOWELL         CLOUDY    50  48  93 N8        29.98S

CITY           SKY/WX    TMP DP  RH WIND       PRES   REMARKS
JACKSON        CLOUDY    52  49  89 N8        29.99R
LAMBERTVILLE   CLOUDY    54  52  94 NW6       29.97S
LANSING        CLOUDY    52  46  80 N9        30.00S
LAPEER         CLOUDY    51  48  90 N6G16     29.98R
MASON          CLOUDY    51  47  88 N9        29.99S
MONROE         CLOUDY    55  52  88 N6        29.95S
MT. CLEMENS    CLOUDY    53  52  95 NW7       29.93S
PONTIAC        CLOUDY    54  48  80 N7        29.96R
PORT HOPE        N/A     53  49  86 CALM      29.95R
PORT HURON     CLOUDY    52  50  93 N7        29.96R FOG
TRI CITIES     CLOUDY    53  44  71 N9        30.01S
TROY           CLOUDY    55  49  78 NW9       29.98R
SAGINAW HB     CLOUDY    52  48  87 N7        29.99S
$$
MIZ043>046-050>051-056>058-064>065-071>073-077>080-301600-
SOUTHWEST LOWER MICHIGAN

CITY           SKY/WX    TMP DP  RH WIND       PRES   REMARKS
BATTLE CREEK   CLOUDY    52  47  83 N9        30.01S
BIG RAPIDS     CLOUDY    48  48 100 N6        30.01S
COLDWATER      CLOUDY    52  49  89 N6        30.00S
FREMONT        CLOUDY    50  46  87 NE9       30.02F
GRAND RAPIDS   CLOUDY    52  47  83 N9        30.02R
IONIA          CLOUDY    51  48  87 N7        30.00S
KALAMAZOO      CLOUDY    51  47  86 N9        30.02R
LUDINGTON      CLOUDY    49  47  93 N9        30.04F
MARSHALL       CLOUDY    50  48  92 NW3       29.99S FOG
MOUNT PLEASANT CLOUDY    51  45  80 N6        30.01R
MUSKEGON       PTSUNNY   55  45  68 N8        30.04S
SOUTH HAVEN    CLOUDY    51  46  84 NE8       30.03R
$$
MIZ016>042-301600-
NORTHERN LOWER MICHIGAN

CITY           SKY/WX    TMP DP  RH WIND       PRES   REMARKS
ALPENA         CLOUDY    48  45  89 N16       30.02S
BEAVER ISLAND  CLOUDY    49  44  84 NE10      30.07S
BELLAIRE       CLOUDY    48  44  85 NE7       30.05S
CADILLAC       CLOUDY    44  43  98 N7        30.02R
CHARLEVOIX     CLOUDY    48  45  90 NE8       30.07F
FRANKFORT      CLOUDY    50  45  82 N5        30.05S HAZE
GAYLORD        CLOUDY    45  42  89 NE8       30.03S
GRAYLING       CLOUDY    49  45  85 N6        30.02F
HARBOR SPRINGS CLOUDY    47  43  87 NE6       30.05S
HOUGHTON LAKE  CLOUDY    48  43  82 N12       30.01F
OSCODA         CLOUDY    48  47  96 N10       29.98F FOG
PELLSTON       CLOUDY    46  43  89 NE8       30.06F
ROGERS CITY    CLOUDY    47  45  90 N6        30.05S
TRAVERSE CITY  CLOUDY    50  44  80 NE10G17   30.03S
$$
MIZ007>008-015-301600-
EASTERN UPPER MICHIGAN

CITY           SKY/WX    TMP DP  RH WIND       PRES   REMARKS
MACKINAC ISLAN CLOUDY    47  43  86 NE9       30.05F
NEWBERRY       CLOUDY    44  41  91 N7        30.07F
S. S. MARIE    CLOUDY    47  39  74 N5        30.07S
MUNISING         N/A     49  43  80 NE16      30.10F
$$
MIZ004>006-011>014-085-301600-
CENTRAL UPPER MICHIGAN

CITY           SKY/WX    TMP DP  RH WIND       PRES   REMARKS
MANISTIQUE     CLOUDY    46  42  83 N8        30.08S
SAWYER-GWINN   CLOUDY    41  37  87 N14       30.11S
$$
MIZ001>003-009>011-084-301600-
WESTERN UPPER MICHIGAN

CITY           SKY/WX    TMP DP  RH WIND       PRES   REMARKS
IRON MOUNTAIN  CLOUDY    43  38  82 N10       30.11S
HOUGHTON       MOSUNNY   46  36  68 VRB7      30.14F
COPPER HARBOR    N/A     47  37  68 E8        30.16S
$$

ABBREVIATIONS USED IN REMARKS
   TC - TEMPERATURE IN CELSIUS
  WCI - WIND CHILL INDEX
   HX - HEAT INDEX
  VSB - VISIBILITY




USA.gov is the U.S. government's official web portal to all federal, state and local government web resources and services.